#timestamp,LO_Frequency,Hit,StdDev 
1622988015.5,286047002.3,N
1622988035.3,286047006.3,Y
1622988055.2,286047016.7,P
1622988075.9,286047018.3,N
1622988095.7,286047016.5,N
1622988115.6,286047015.6,N
1622988135.4,286047012.1,N
1622988155.2,286047008.0,N
1622988175.1,286047006.3,N
1622988176.0,286047006.3,N
1622988195.8,286047007.4,N
1622988215.7,286047004.7,N
1622988235.5,286047005.4,N
1622988255.3,286047005.3,N
1622988275.2,286047004.2,N
1622988295.0,286047003.9,N
1622988295.9,286047003.9,N
1622988315.8,286047001.4,N
1622988335.6,286047002.2,N
1622988355.4,286047002.1,N
1622988375.3,286047000.5,N
1622988395.1,286046998.1,N
1622988415.9,286046998.6,N
1622988435.7,286046998.9,N
1622988455.5,286046997.0,N
1622988475.4,286046994.9,N
1622988495.2,286046995.3,N
1622988515.0,286046995.7,N
1622988515.9,286046995.7,N
1622988535.8,286046995.0,N
1622988555.6,286046993.7,N
1622988575.5,286046996.0,N
1622988595.3,286046995.9,N
1622988615.1,286046996.4,N
1622988635.9,286046994.1,N
1622988655.7,286046994.2,N
1622988675.6,286046993.6,N
1622988695.4,286046991.8,N
1622988715.2,286046993.9,N
1622988735.1,286046993.9,N
1622988736.0,286046993.9,N
1622988755.8,286046994.1,N
1622988775.6,286046994.8,N
1622988795.5,286046992.0,N
1622988815.3,286046991.8,N
1622988835.2,286046992.5,N
1622988855.9,286046992.6,N
1622988875.7,286046990.5,Y
1622988895.6,286046996.8,P
1622988915.4,286046996.9,P
1622988935.3,286046997.0,P
1622988955.1,286046997.4,Y
1622988975.8,286047000.3,P
1622988995.7,286047000.6,N
1622989015.5,286047002.3,N
1622989035.4,286047000.2,N
1622989055.2,286047000.1,N
1622989075.0,286047001.2,N
1622989075.9,286047001.2,N
1622989095.8,286046998.2,N
1622989115.6,286047000.8,N
1622989135.4,286046998.9,N
1622989155.3,286046998.7,N
1622989175.1,286046998.3,N
1622989195.9,286047000.5,N
1622989215.7,286047001.1,N
1622989235.5,286047002.7,N
1622989255.4,286047000.0,N
1622989275.2,286047000.6,N
1622989295.0,286046998.2,N
1622989295.9,286046998.2,N
1622989315.8,286046998.5,N
1622989335.6,286047000.7,N
1622989355.5,286046998.1,N
1622989375.3,286047000.8,N
1622989395.1,286046998.2,N
1622989415.9,286046999.9,N
1622989435.7,286047000.5,N
1622989455.5,286046999.8,N
1622989475.4,286047001.1,N
1622989495.2,286047000.8,N
1622989515.0,286047002.2,N
1622989516.0,286047002.2,N
1622989535.8,286047000.5,N
1622989555.6,286047000.1,N
1622989575.5,286046999.7,N
1622989595.3,286047002.2,N
1622989615.1,286047001.7,N
1622989635.9,286047002.1,N
1622989655.7,286047003.7,N
1622989675.5,286047004.4,N
1622989695.4,286047004.3,N
1622989715.2,286047004.0,N
1622989735.1,286047004.1,N
1622989736.0,286047004.1,N
1622989755.8,286047004.2,N
1622989775.6,286047004.0,N
1622989795.5,286047003.8,N
1622989815.3,286047003.5,N
1622989835.1,286047004.2,N
1622989855.9,286047002.2,N
1622989875.7,286047002.8,N
1622989895.6,286047000.3,N
1622989915.4,286047001.5,N
1622989935.2,286047002.3,N
1622989955.1,286046999.8,N
1622989956.0,286046999.8,N
1622989975.8,286047002.1,N
1622989995.7,286047002.0,N
1622990015.5,286047002.6,N
1622990035.3,286047003.9,N
1622990055.2,286047003.7,N
1622990075.0,286047005.3,Y
1622990075.9,286047005.3,P
1622990095.8,286047001.8,N
1622990115.6,286047001.8,N
1622990135.4,286047004.2,N
1622990155.3,286047001.9,N
1622990175.1,286046999.8,N
1622990176.0,286046999.8,N
1622990195.8,286047000.0,N
1622990215.7,286046999.8,N
1622990235.5,286047000.5,N
1622990255.3,286046999.8,N
1622990275.2,286047000.2,N
1622990295.0,286047002.8,N
1622990295.9,286047002.8,N
1622990315.8,286046999.7,N
1622990335.6,286047000.5,N
1622990355.4,286047001.0,N
1622990375.3,286046998.5,N
1622990395.1,286046998.9,N
1622990415.8,286046998.7,N
1622990435.7,286047000.9,N
1622990455.5,286047002.8,N
1622990475.4,286047002.8,N
1622990495.2,286047001.6,N
1622990515.0,286047002.8,N
1622990515.9,286047002.8,N
1622990535.8,286047002.2,N
1622990555.6,286047002.3,N
1622990575.4,286047002.8,N
1622990595.3,286046999.9,N
1622990615.1,286047000.3,N
1622990635.9,286047001.8,N
1622990655.7,286047001.6,N
1622990675.5,286047001.5,N
1622990695.4,286047001.9,N
1622990715.2,286047002.0,N
1622990735.0,286047001.7,N
1622990735.9,286047001.7,N
1622990755.8,286047004.3,Y
1622990775.6,286047001.8,P
1622990795.5,286047001.4,P
1622990815.3,286047001.5,P
1622990835.1,286047002.0,Y
1622990855.9,286047002.8,P
1622990875.7,286046999.8,N
1622990895.6,286047001.9,N
1622990915.4,286047002.3,N
1622990935.2,286047002.0,N
1622990955.1,286047001.9,N
1622990956.0,286047001.9,N
1622990975.8,286047002.4,N
1622990995.6,286047002.3,N
1622991015.5,286047001.5,N
1622991035.3,286047002.0,N
1622991055.2,286047002.1,N
1622991075.9,286047002.5,Y
1622991095.7,286046999.9,P
1622991115.6,286047002.4,N
1622991135.4,286047002.3,N
1622991155.2,286047002.5,N
1622991175.1,286047002.7,N
1622991176.0,286047002.7,N
1622991195.8,286047002.1,N
1622991215.7,286047002.3,N
1622991235.5,286047002.2,N
1622991255.3,286047002.6,Y
1622991275.2,286047001.0,P
1622991295.0,286046998.5,N
1622991295.9,286046998.5,N
1622991315.8,286047000.4,N
1622991335.6,286047001.1,N
1622991355.4,286047000.8,N
1622991375.3,286047001.0,N
1622991395.1,286047000.6,N
1622991415.8,286047000.9,N
1622991435.7,286047000.9,N
1622991455.5,286046998.5,N
1622991475.4,286046998.2,N
1622991495.2,286046999.0,N
1622991515.0,286046998.1,N
1622991515.9,286046998.1,N
1622991535.8,286046996.5,N
1622991555.6,286046998.7,N
1622991575.4,286047000.9,N
1622991595.3,286046998.3,N
